Regional Weather Roundup
Issued by NWS

Home | Current Version | Previous Version | Text Only | Print | Product List | Glossary Off
Versions: 1 2 3 4 5 6 7 8 9 10 11 12 13 14 15 16 17 18 19 20 21 22 23 24 25 26 27 28 29 30 31 32 33 34 35 36 37 38 39 40 41 42 43 44 45 46 47 48 49 50

000
ASUS45 KBOI 162310
RWRID
WEATHER ROUNDUP FOR IDAHO
NATIONAL WEATHER SERVICE BOISE ID
500 PM MDT TUE SEP 16 2014

NOTE: "FAIR" INDICATES FEW OR NO CLOUDS BELOW 12000 FEET
WITH NO SIGNIFICANT WEATHER AND/OR OBSTRUCTIONS TO VISIBILITY

IDZ012-014-170000-
SOUTHWEST IDAHO


CITY           SKY/WX    TMP DP  RH WIND       PRES   REMARKS
BOISE          SUNNY     92  41  17 N3        29.85F
CALDWELL       SUNNY     91  48  22 NE6       29.85F
MOUNTAIN HOME  MOSUNNY   92  37  14 VRB2      29.86F
$$

IDZ016-017-170000-
SOUTHCENTRAL IDAHO


CITY           SKY/WX    TMP DP  RH WIND       PRES   REMARKS
BURLEY         MOSUNNY   89  41  18 NE5       29.94F
JEROME         SUNNY     86  45  23 W3        29.95F
TWIN FALLS     SUNNY     89  43  20 VRB5      29.96F
$$

IDZ019>023-170000-
SOUTHEAST IDAHO


CITY           SKY/WX    TMP DP  RH WIND       PRES   REMARKS
IDAHO FALLS    MOSUNNY   85  36  17 W5        30.02F
POCATELLO      MOSUNNY   90  39  16 VRB3G17   29.99F
REXBURG        PTSUNNY   83  34  17 CALM      30.03F
$$

IDZ006-010-011-018-031-032-170000-
CENTRAL IDAHO MOUNTAINS


CITY           SKY/WX    TMP DP  RH WIND       PRES   REMARKS
MCCALL         SUNNY     79  44  28 S14       30.01F
STANLEY          N/A     79  37  22 W8        30.11F
SALMON         MOSUNNY   72  45  37 CALM      29.97F
CHALLIS        MOSUNNY   80  40  23 N5        30.01F
$$

IDZ002-004-006-007-026-170000-
NORTHERN IDAHO


CITY           SKY/WX    TMP DP  RH WIND       PRES   REMARKS
LEWISTON       MOSUNNY   93  36  13 NW9       29.78F
LOWELL           N/A     80  57  45 CALM      29.78F
COEUR D`ALENE  PTSUNNY   81  43  26 N7        29.84F
MULLAN PASS    MOSUNNY   71  38  29 NW5       30.08F
$$


USA.gov is the U.S. government's official web portal to all federal, state and local government web resources and services.